Regional Weather Roundup
Issued by NWS Newport/Morehead, NC

Current Version | Previous Version | Text Only | Print | Product List | Glossary Off
Versions: 1 2 3 4 5 6 7 8 9 10 11 12 13 14 15 16 17 18 19 20 21 22 23 24 25 26 27 28 29 30 31 32 33 34 35 36 37 38 39 40 41 42 43 44 45 46 47 48 49 50
000 ASUS42 KMHX 300725 RWRMHX WEATHER ROUNDUP FOR EASTERN NORTH CAROLINA NATIONAL WEATHER SERVICE NEWPORT/MOREHEAD CITY NC 300 AM EDT SUN AUG 30 2015 NOTE: "FAIR" INDICATES FEW OR NO CLOUDS BELOW 12,000 FEET WITH NO SIGNIFICANT WEATHER AND/OR OBSTRUCTIONS TO VISIBILITY NCZ015>017-031-032-045>047-102-103-300800- NORTH COAST CITY SKY/WX TMP DP RH WIND PRES REMARKS EDENTON CLOUDY 66 63 91 N3 30.11F ELIZABETH CITY MOCLDY 69 66 90 NW6 30.11S KITTY HAWK PTSUNNY 76 70 81 NE6 30.08F MANTEO MOCLDY 74 71 88 NE5 30.09F $$ NCZ045>047-081-094-103-104-300800- CENTRAL COAST CITY SKY/WX TMP DP RH WIND PRES REMARKS FRISCO PTCLDY 76 73 91 N5 30.08F SWANQUARTER NOT AVBL $$ NCZ095-097-098-100-101-300800- SOUTHERN COAST CITY SKY/WX TMP DP RH WIND PRES REMARKS BEAUFORT PTCLDY 72 69 90 N3 30.10F CEDAR ISLAND NOT AVBL JACKSONVILLE MOCLDY 68 65 90 CALM 30.10F PINEY ISLAND MOSUNNY N/A N/A N/A NW5 30.09F WILMINGTON MOCLDY 71 65 81 CALM 30.11F $$ NCZ011>013-027>030-043-044-078>080-089-090>093-098-300800- COASTAL PLAIN CITY SKY/WX TMP DP RH WIND PRES REMARKS AHOSKIE PTCLDY 63 61 94 CALM 30.12F CLINTON CLOUDY 67 65 94 CALM 30.12F ELIZABETHTOWN CLOUDY 70 64 83 CALM 30.11F GOLDSBORO CLOUDY 69 64 86 CALM 30.11F GREENVILLE MOCLDY 68 66 94 CALM 30.13F HAVELOCK PTCLDY 73 67 81 N5 30.11F KENANSVILLE N/A 66 65 95 CALM 30.13S KINSTON CLOUDY 67 65 92 CALM 30.12F NEW BERN PTCLDY 68 66 93 CALM 30.12F RICHLANDS CLOUDY 66 61 82 CALM 30.11F ROCKY MOUNT MOCLDY 68 63 84 CALM 30.12F WASHINGTON PTCLDY 65 64 94 CALM 30.11F WHITEVILLE CLOUDY 69 66 91 CALM 30.11F $$ AMZ130-135-150-152-154-156-158-170-250-252-270-ANZ085-086-088-633-658-670-300800- MARINE OBSERVATIONS STATION/POSITION TIME TEMP WIND PRES WAVE SWELL AIR SEA DIR/SP/G HT/PER HT/PER (UTC) (F) (DEG/KT/KT) (MB) (FT/S) (FT/S) CHESAPEAKE LIGHT 0700 76 50/ 5/ 5 1020.2 64 E VA BEACH 0650 77 78 60/ 10/ 14 1018.3 4/11 3/11 DUCK NOT AVBL 2 E DUCK 0611 78 N/A 4/12 2/12 OREGON INLET NOT AVBL 13E OREGON INLT 0700 78 N/A 5/11 2/11 HATTERAS CG NOT AVBL DIAMOND BUOY 0650 79 81 350/ 10/ 14 1018.2 4/10 3/10 CAPE LOOKOUT 0700 74 350/ 6/ 7 1018.7 BEAUFORT LAB NOT AVBL 30 SE NEW RVR IN 0608 79 81 30/ 6/ 10 1019.8 30 SE NEW RVR IN 0625 81 N/A 5/11 2/11 27 SE WRIGHTSVLE 0700 76 82 50/ 6/ 8 N/A 5 SE WRIGHTSVLE 0608 80 82 70/ 6/ 8 1019.7 225 S CAPE HAT 0650 83 84 220/ 8/ 10 1019.6 5/11 5/11 41 SE CHARLESTON 0650 80 85 50/ 10/ 10 1018.5 4/11 3/11 $$

USA.gov is the U.S. government's official web portal to all federal, state and local government web resources and services.